{"data":{"norad_id":67118,"epoch":"2026-09-20T09:03:17.821440Z","epoch_age_seconds":89097,"freshness":"FRESH","line1":"1 67118U 25299S   26263.37728960  .00011805  00000+0  43762-3 0  9990","line2":"2 67118  42.9990 149.2805 0001220 271.7812  88.2899 15.27595495 42899","mean_motion":15.27595495,"eccentricity":0.000122,"inclination_deg":42.999,"raan_deg":149.2805,"arg_perigee_deg":271.7812,"mean_anomaly_deg":88.2899,"bstar":0.00043762,"rev_number":4289,"period_min":94.265792529062,"perigee_km":482.16563978429,"apogee_km":483.8397578708,"semimajor_km":6861.1396988275,"source":"CELESTRAK","updated_at":"2026-09-21T09:00:36.106926Z"}}